#�ϑ�����,���ϕ���,���ϕ���,�ő啗��,�ő啗����������,�ő�u�ԕ���,�ő�u�ԕ�����������
#(�N����),(m/s)   ,(16����),(m/s)   ,(16����)        ,(m/s)       ,(16����)            
2015/12/17 0:01,0.7,11,0.7,12,1.3,10
2015/12/17 0:02,0.8,11,0.8,12,3.7,10
2015/12/17 0:03,1,11,1,11,2.4,11
2015/12/17 0:04,1,11,1,11,3,12
2015/12/17 0:05,1.1,11,1.1,11,1.8,9
2015/12/17 0:06,1.2,10,1.2,11,2.4,9
2015/12/17 0:07,1.2,10,1.2,11,2.1,11
2015/12/17 0:08,1.2,11,1.2,11,1.6,13
2015/12/17 0:09,1.2,10,1.2,11,1.5,10
2015/12/17 0:10,1.2,11,1.2,11,1,13
2015/12/17 0:11,1.1,11,1.2,11,0.6,14
2015/12/17 0:12,1,11,1.1,11,0.8,12
2015/12/17 0:13,0.9,11,0.9,11,1.1,12
2015/12/17 0:14,0.8,12,0.9,11,0.9,15
2015/12/17 0:15,0.7,11,0.8,11,0.6,12
2015/12/17 0:16,0.6,11,0.7,10,1.1,9
2015/12/17 0:17,0.5,11,0.6,10,1.1,13
2015/12/17 0:18,0.5,11,0.5,11,0.9,12
2015/12/17 0:19,0.5,11,0.5,10,0.6,7
2015/12/17 0:20,0.5,12,0.5,11,1.4,14
2015/12/17 0:21,0.6,11,0.6,11,2,9
2015/12/17 0:22,0.6,11,0.6,11,1.5,9
2015/12/17 0:23,0.7,11,0.7,11,2.5,10
2015/12/17 0:24,0.8,10,0.8,12,2.2,9
2015/12/17 0:25,0.9,11,0.9,10,2.5,10
2015/12/17 0:26,1,11,1,11,2.2,8
2015/12/17 0:27,1.2,10,1.2,11,2.4,9
2015/12/17 0:28,1.3,11,1.3,10,2.7,12
2015/12/17 0:29,1.4,10,1.4,11,2.4,10
2015/12/17 0:30,1.5,10,1.5,10,2.9,10
2015/12/17 0:31,1.6,10,1.6,10,2.9,11
2015/12/17 0:32,1.7,10,1.7,10,2.5,10
2015/12/17 0:33,1.8,10,1.8,10,2.2,11
2015/12/17 0:34,1.8,11,1.8,10,2.4,11
2015/12/17 0:35,1.8,11,1.8,10,2.4,11
2015/12/17 0:36,1.8,11,1.9,11,2,10
2015/12/17 0:37,1.8,11,1.8,11,1.9,11
2015/12/17 0:38,1.8,11,1.8,11,1.8,10
2015/12/17 0:39,1.7,11,1.8,11,1.3,10
2015/12/17 0:40,1.6,11,1.7,11,1.1,11
2015/12/17 0:41,1.5,11,1.6,11,1,10
2015/12/17 0:42,1.3,11,1.4,11,1.1,10
2015/12/17 0:43,1.2,11,1.3,11,0.9,8
2015/12/17 0:44,1,11,1.2,11,0.1,15
2015/12/17 0:45,0.8,11,1,11,0.1,3
2015/12/17 0:46,0.7,11,0.8,11,0.8,12
2015/12/17 0:47,0.5,11,0.7,11,0.8,10
2015/12/17 0:48,0.5,11,0.5,11,0.9,12
2015/12/17 0:49,0.4,11,0.4,11,1,11
2015/12/17 0:50,0.4,11,0.4,11,1.5,11
2015/12/17 0:51,0.5,11,0.5,11,1.6,11
2015/12/17 0:52,0.5,12,0.5,11,1.3,10
2015/12/17 0:53,0.5,12,0.5,11,1.1,12
2015/12/17 0:54,0.6,12,0.6,11,1.3,13
2015/12/17 0:55,0.7,12,0.7,11,1.4,12
2015/12/17 0:56,0.8,12,0.8,12,1.1,12
2015/12/17 0:57,0.8,12,0.8,12,1,9
2015/12/17 0:58,0.9,12,0.9,12,1.9,11
2015/12/17 0:59,1,12,1,12,2.1,11
2015/12/17 1:00,0.9,12,1,12,1.1,13
2015/12/17 1:01,0.9,12,0.9,12,1,12
2015/12/17 1:02,0.9,12,0.9,12,0.9,12
2015/12/17 1:03,0.9,12,0.9,12,1.3,13
2015/12/17 1:04,0.9,12,0.9,12,1.3,12
2015/12/17 1:05,0.9,12,0.9,12,1.4,11
2015/12/17 1:06,0.9,12,0.9,12,1,9
2015/12/17 1:07,0.9,12,0.9,12,1.3,12
2015/12/17 1:08,0.8,12,0.9,12,1.8,10
2015/12/17 1:09,0.8,12,0.8,12,1.8,9
2015/12/17 1:10,0.8,11,0.8,12,2.2,12
2015/12/17 1:11,0.9,11,0.9,12,1.5,11
2015/12/17 1:12,1,11,1,11,1.6,12
2015/12/17 1:13,0.9,11,1,11,1.1,14
2015/12/17 1:14,0.9,12,0.9,11,1,14
2015/12/17 1:15,0.9,12,0.9,11,1.9,14
2015/12/17 1:16,1,12,1,11,2.4,12
2015/12/17 1:17,1.1,12,1.1,12,2.4,13
2015/12/17 1:18,1.2,13,1.2,13,2.4,13
2015/12/17 1:19,1.1,13,1.2,13,0.9,15
2015/12/17 1:20,1,13,1.1,13,1.5,10
2015/12/17 1:21,1,13,1,13,1.5,12
2015/12/17 1:22,1,13,1,13,1.5,9
2015/12/17 1:23,1,13,1,13,1.3,8
2015/12/17 1:24,1.1,12,1.1,13,2,11
2015/12/17 1:25,1,12,1.1,13,1.1,10
2015/12/17 1:26,0.9,12,1,13,1,13
2015/12/17 1:27,0.9,12,0.9,13,1.9,12
2015/12/17 1:28,0.8,12,0.9,13,1.8,14
2015/12/17 1:29,0.8,12,0.8,13,1.1,15
2015/12/17 1:30,0.8,12,0.8,12,1.4,16
2015/12/17 1:31,0.8,12,0.8,12,1.5,16
2015/12/17 1:32,0.8,13,0.8,12,1.8,16
2015/12/17 1:33,0.9,14,0.9,12,2.6,15
2015/12/17 1:34,1.1,14,1.1,12,3.9,15
2015/12/17 1:35,1.2,14,1.2,14,2.4,15
2015/12/17 1:36,1.3,14,1.3,14,3.3,16
2015/12/17 1:37,1.5,14,1.5,14,4.8,14
2015/12/17 1:38,1.8,14,1.8,14,5,14
2015/12/17 1:39,1.9,14,1.9,14,3.9,15
2015/12/17 1:40,2,14,2,14,2.5,14
2015/12/17 1:41,2.2,15,2.2,15,5.8,15
2015/12/17 1:42,2.2,14,2.2,15,5.4,1
2015/12/17 1:43,2.3,14,2.3,14,3.7,15
2015/12/17 1:44,2.4,15,2.4,15,4.5,15
2015/12/17 1:45,2.5,15,2.5,15,4.2,16
2015/12/17 1:46,2.5,15,2.5,15,3.8,1
2015/12/17 1:47,2.3,15,2.5,15,2.5,15
2015/12/17 1:48,2.3,15,2.3,15,3.9,15
2015/12/17 1:49,2.3,15,2.3,15,3.9,16
2015/12/17 1:50,2.4,15,2.4,15,3.3,16
2015/12/17 1:51,2.3,15,2.4,15,3.3,13
2015/12/17 1:52,2.3,15,2.3,15,3.2,1
2015/12/17 1:53,2.2,15,2.3,15,4.2,16
2015/12/17 1:54,2.2,15,2.2,15,4.8,16
2015/12/17 1:55,2.3,15,2.3,15,5.6,16
2015/12/17 1:56,2.7,15,2.7,15,8.2,16
2015/12/17 1:57,2.9,15,2.9,15,5,15
2015/12/17 1:58,2.9,15,2.9,15,5,16
2015/12/17 1:59,2.9,15,2.9,15,4.3,15
2015/12/17 2:00,3,15,3,15,6.2,15
2015/12/17 2:01,3.2,15,3.2,15,6.8,14
2015/12/17 2:02,3.6,15,3.6,15,7.7,15
2015/12/17 2:03,3.8,15,3.8,15,6,15
2015/12/17 2:04,3.9,15,3.9,15,5.5,1
2015/12/17 2:05,4,15,4,15,7.2,16
2015/12/17 2:06,3.7,15,4,15,5,16
2015/12/17 2:07,3.7,15,3.7,15,3.7,14
2015/12/17 2:08,3.6,15,3.6,15,3.8,16
2015/12/17 2:09,3.7,15,3.7,15,5.8,16
2015/12/17 2:10,3.7,15,3.7,15,7.5,16
2015/12/17 2:11,3.6,15,3.7,15,6.3,15
2015/12/17 2:12,3.3,15,3.6,15,3.5,16
2015/12/17 2:13,3.4,15,3.4,15,7.8,14
2015/12/17 2:14,3.5,15,3.5,15,6.2,15
2015/12/17 2:15,3.3,15,3.5,15,3.9,15
2015/12/17 2:16,3.3,15,3.3,15,4.2,15
2015/12/17 2:17,3.4,15,3.4,15,4.9,15
2015/12/17 2:18,3.4,15,3.4,15,4.8,15
2015/12/17 2:19,3.5,15,3.5,15,5.8,16
2015/12/17 2:20,3.4,15,3.6,15,6.7,15
2015/12/17 2:21,3.4,15,3.4,15,4.4,16
2015/12/17 2:22,3.5,15,3.5,15,5.1,13
2015/12/17 2:23,3.5,15,3.5,15,6.1,13
2015/12/17 2:24,3.4,15,3.4,15,5.5,14
2015/12/17 2:25,3.4,15,3.4,15,4.2,14
2015/12/17 2:26,3.3,14,3.4,15,3.3,14
2015/12/17 2:27,3.3,14,3.4,15,4.5,15
2015/12/17 2:28,3.2,14,3.3,15,4.2,16
2015/12/17 2:29,3.1,14,3.2,15,2.7,13
2015/12/17 2:30,3,14,3,15,6,13
2015/12/17 2:31,3.3,14,3.3,15,7.9,13
2015/12/17 2:32,3.3,13,3.4,15,6.4,12
2015/12/17 2:33,3,13,3.3,15,3,13
2015/12/17 2:34,2.7,14,2.9,15,3,15
2015/12/17 2:35,2.8,13,2.8,15,6.5,12
2015/12/17 2:36,2.9,13,3,14,6.1,12
2015/12/17 2:37,3,13,3,13,5.4,13
2015/12/17 2:38,2.9,13,3,13,4.4,13
2015/12/17 2:39,3,13,3,13,4.8,12
2015/12/17 2:40,2.9,13,3,13,5.6,12
2015/12/17 2:41,2.7,13,3,13,5.7,13
2015/12/17 2:42,2.6,13,2.6,13,4.4,13
2015/12/17 2:43,2.9,13,2.9,13,5.4,12
2015/12/17 2:44,3.2,13,3.2,13,6.8,12
2015/12/17 2:45,3.1,13,3.2,13,5.2,12
2015/12/17 2:46,3,13,3.1,13,4.2,13
2015/12/17 2:47,2.9,13,3,13,3.8,15
2015/12/17 2:48,2.8,13,2.9,13,2.9,1
2015/12/17 2:49,2.6,13,2.8,13,1.1,16
2015/12/17 2:50,2.4,13,2.6,13,1.4,15
2015/12/17 2:51,2.2,13,2.4,13,1.4,15
2015/12/17 2:52,2.1,13,2.2,13,2.6,13
2015/12/17 2:53,1.9,13,2.1,13,3.6,12
2015/12/17 2:54,1.6,14,1.9,13,2.4,13
2015/12/17 2:55,1.5,14,1.6,13,3.1,12
2015/12/17 2:56,1.5,14,1.5,13,3.8,10
2015/12/17 2:57,1.7,13,1.7,13,6.2,12
2015/12/17 2:58,1.9,13,1.9,13,4.4,12
2015/12/17 2:59,2,13,2,13,4.1,14
2015/12/17 3:00,2.2,13,2.2,13,3.1,13
2015/12/17 3:01,2.3,13,2.3,13,4.4,12
2015/12/17 3:02,2.4,13,2.4,13,3.5,12
2015/12/17 3:03,2.4,13,2.4,13,3.3,13
2015/12/17 3:04,2.4,13,2.4,13,3.6,16
2015/12/17 3:05,2.4,13,2.4,13,3.6,12
2015/12/17 3:06,2.4,13,2.4,13,3,10
2015/12/17 3:07,2.2,13,2.4,13,3.7,11
2015/12/17 3:08,2.1,13,2.2,13,3.7,15
2015/12/17 3:09,2,13,2,13,4.2,13
2015/12/17 3:10,2.1,13,2.1,13,4.2,13
2015/12/17 3:11,2.3,13,2.3,13,5.6,13
2015/12/17 3:12,2.3,13,2.3,13,3.8,12
2015/12/17 3:13,2.3,13,2.3,13,3.5,12
2015/12/17 3:14,2.4,13,2.4,13,4.9,12
2015/12/17 3:15,2.4,13,2.4,13,3.5,15
2015/12/17 3:16,2.5,13,2.5,13,4.1,14
2015/12/17 3:17,2.5,13,2.6,13,4.8,13
2015/12/17 3:18,2.8,13,2.8,13,5.5,13
2015/12/17 3:19,2.9,13,2.9,13,5,12
2015/12/17 3:20,3.1,13,3.1,13,7.2,13
2015/12/17 3:21,3.1,13,3.2,13,7.5,13
2015/12/17 3:22,3,13,3.1,13,1.8,15
2015/12/17 3:23,2.9,13,3,13,2.4,15
2015/12/17 3:24,2.7,13,2.8,13,2.9,1
2015/12/17 3:25,2.8,13,2.8,13,5.2,11
2015/12/17 3:26,2.9,13,2.9,13,5,12
2015/12/17 3:27,2.7,13,2.9,13,3.6,12
2015/12/17 3:28,2.5,13,2.7,13,3.8,15
2015/12/17 3:29,2.5,13,2.5,13,4.5,15
2015/12/17 3:30,2.2,14,2.5,13,2.7,1
2015/12/17 3:31,2.1,14,2.1,13,4.9,16
2015/12/17 3:32,2.3,15,2.3,13,5.7,16
2015/12/17 3:33,2.4,15,2.4,13,3.9,16
2015/12/17 3:34,2.4,15,2.5,13,2.6,16
2015/12/17 3:35,2.4,15,2.5,13,3.6,1
2015/12/17 3:36,2.3,16,2.4,13,3.9,16
2015/12/17 3:37,2.4,16,2.4,13,3.2,15
2015/12/17 3:38,2.3,16,2.4,13,3.9,14
2015/12/17 3:39,2.2,16,2.3,14,3.7,16
2015/12/17 3:40,2.2,15,2.2,15,3.3,15
2015/12/17 3:41,2.2,15,2.2,15,5.8,15
2015/12/17 3:42,2.3,15,2.3,15,5.4,15
2015/12/17 3:43,2.3,15,2.3,15,3.5,14
2015/12/17 3:44,2.4,15,2.4,15,4.2,15
2015/12/17 3:45,2.5,15,2.5,15,4.5,16
2015/12/17 3:46,2.6,15,2.6,15,5.4,14
2015/12/17 3:47,2.6,14,2.6,15,3.1,12
2015/12/17 3:48,2.7,14,2.7,14,3.3,13
2015/12/17 3:49,2.7,14,2.7,14,2.9,16
2015/12/17 3:50,2.5,14,2.7,14,1.5,16
2015/12/17 3:51,2.2,14,2.5,14,0.4,9
2015/12/17 3:52,1.9,13,2.2,14,0.8,8
2015/12/17 3:53,1.7,13,1.9,14,1,15
2015/12/17 3:54,1.5,12,1.6,14,2.9,10
2015/12/17 3:55,1.4,12,1.5,14,1.8,12
2015/12/17 3:56,1.2,11,1.4,14,2.5,12
2015/12/17 3:57,1.2,12,1.2,14,2.9,12
2015/12/17 3:58,1.1,12,1.2,14,2.1,13
2015/12/17 3:59,0.9,11,1.1,14,0.9,13
2015/12/17 4:00,0.9,11,0.9,14,1.3,16
2015/12/17 4:01,1,12,1,13,1.1,13
2015/12/17 4:02,1,12,1,13,2,12
2015/12/17 4:03,1.1,12,1.1,13,3.5,11
2015/12/17 4:04,1.1,12,1.1,12,3,12
2015/12/17 4:05,1.1,12,1.1,12,2.2,13
2015/12/17 4:06,1.1,12,1.1,11,2.1,12
2015/12/17 4:07,1,13,1.1,12,2,14
2015/12/17 4:08,1.1,13,1.1,12,3.2,16
2015/12/17 4:09,1.3,13,1.3,13,3.3,16
2015/12/17 4:10,1.3,13,1.3,13,0.9,15
2015/12/17 4:11,1.3,13,1.3,13,1.1,14
2015/12/17 4:12,1.3,14,1.3,13,1.6,14
2015/12/17 4:13,1.3,14,1.3,13,2.6,16
2015/12/17 4:14,1.4,14,1.4,14,3.7,1
2015/12/17 4:15,1.4,15,1.4,14,2.9,14
2015/12/17 4:16,1.3,15,1.4,14,2,16
2015/12/17 4:17,1.3,15,1.4,14,2.7,16
2015/12/17 4:18,1.3,16,1.4,14,2.2,1
2015/12/17 4:19,1.1,15,1.3,14,0.8,7
2015/12/17 4:20,1.1,16,1.1,14,1.9,16
2015/12/17 4:21,1.1,16,1.1,14,1.1,13
2015/12/17 4:22,1.1,1,1.1,14,2,2
2015/12/17 4:23,1.1,1,1.1,14,1.8,1
2015/12/17 4:24,0.9,1,1,14,1.8,7
2015/12/17 4:25,0.8,1,0.9,15,1,8
2015/12/17 4:26,0.8,1,0.8,15,2,16
2015/12/17 4:27,0.8,16,0.8,15,1.6,16
2015/12/17 4:28,0.7,16,0.8,16,0.9,16
2015/12/17 4:29,0.8,15,0.8,16,0.8,11
2015/12/17 4:30,0.7,15,0.8,16,0.6,12
2015/12/17 4:31,0.8,14,0.8,16,2.1,9
2015/12/17 4:32,0.8,13,0.9,1,2.2,9
2015/12/17 4:33,0.8,12,0.8,1,1.8,10
2015/12/17 4:34,0.8,12,0.8,1,1.4,9
2015/12/17 4:35,0.8,12,0.8,14,1.1,8
2015/12/17 4:36,0.9,11,0.9,14,2.4,8
2015/12/17 4:37,0.8,10,0.9,14,1.3,8
2015/12/17 4:38,0.8,10,0.8,14,1.3,1
2015/12/17 4:39,0.9,10,0.9,14,2.5,1
2015/12/17 4:40,1,10,1,10,1.5,8
2015/12/17 4:41,0.9,10,1,10,1.5,12
2015/12/17 4:42,0.9,12,0.9,10,1.8,16
2015/12/17 4:43,0.8,13,0.9,10,0.8,14
2015/12/17 4:44,0.8,14,0.8,10,2.1,13
2015/12/17 4:45,1,14,1,10,3.5,15
2015/12/17 4:46,1,14,1,10,2.6,12
2015/12/17 4:47,1.1,14,1.1,14,2.9,12
2015/12/17 4:48,1.2,14,1.2,14,2.9,16
2015/12/17 4:49,1.1,14,1.2,14,1.5,15
2015/12/17 4:50,1.1,15,1.1,14,0.8,1
2015/12/17 4:51,1.1,15,1.1,14,1.1,1
2015/12/17 4:52,1,16,1.1,14,1,1
2015/12/17 4:53,1,16,1,14,0.8,1
2015/12/17 4:54,0.9,16,1,14,0.5,15
2015/12/17 4:55,0.8,16,0.9,14,1,15
2015/12/17 4:56,0.7,16,0.8,14,1.3,16
2015/12/17 4:57,0.7,16,0.7,14,2.5,13
2015/12/17 4:58,0.7,16,0.7,14,2.1,13
2015/12/17 4:59,0.7,15,0.7,14,1.5,14
2015/12/17 5:00,0.8,15,0.8,15,1,11
2015/12/17 5:01,0.7,14,0.7,15,0.8,2
2015/12/17 5:02,0.8,14,0.8,16,1.8,16
2015/12/17 5:03,0.8,15,0.8,16,1.8,2
2015/12/17 5:04,0.9,15,0.9,16,1,16
2015/12/17 5:05,0.9,15,0.9,15,1.1,16
2015/12/17 5:06,0.9,15,0.9,15,1.4,16
2015/12/17 5:07,0.8,16,0.9,15,1.1,3
2015/12/17 5:08,0.8,1,0.8,15,2.6,2
2015/12/17 5:09,0.9,1,0.9,15,3,2
2015/12/17 5:10,1.1,2,1.1,2,2.6,1
2015/12/17 5:11,1.2,2,1.2,2,2.6,2
2015/12/17 5:12,1.3,2,1.3,2,2.5,3
2015/12/17 5:13,1.3,2,1.3,2,1.9,1
2015/12/17 5:14,1.2,2,1.2,2,0.9,15
2015/12/17 5:15,1.2,2,1.2,2,1.4,16
2015/12/17 5:16,1.2,2,1.2,2,1.9,15
2015/12/17 5:17,1.3,1,1.3,2,2,15
2015/12/17 5:18,1.3,1,1.3,2,3.1,15
2015/12/17 5:19,1.2,16,1.3,2,1.6,15
2015/12/17 5:20,1,16,1.2,2,1,9
2015/12/17 5:21,0.9,15,1,2,1.4,10
2015/12/17 5:22,0.8,14,0.9,2,1.3,10
2015/12/17 5:23,0.7,14,0.8,1,0.5,16
2015/12/17 5:24,0.8,14,0.8,1,1,16
2015/12/17 5:25,0.8,14,0.8,1,2.4,2
2015/12/17 5:26,0.8,15,0.8,1,1.4,16
2015/12/17 5:27,0.8,14,0.8,1,1.6,15
2015/12/17 5:28,0.7,15,0.8,1,1.9,15
2015/12/17 5:29,0.7,15,0.7,16,1,1
2015/12/17 5:30,0.7,15,0.7,16,1.3,15
2015/12/17 5:31,0.7,15,0.7,15,0.5,16
2015/12/17 5:32,0.6,15,0.7,14,0.1,13
2015/12/17 5:33,0.6,15,0.6,14,0.1,9
2015/12/17 5:34,0.6,15,0.6,14,0.8,5
2015/12/17 5:35,0.5,15,0.6,14,0.8,5
2015/12/17 5:36,0.4,14,0.5,15,0.6,7
2015/12/17 5:37,0.4,14,0.4,14,1.3,8
2015/12/17 5:38,0.3,13,0.4,15,1.5,9
2015/12/17 5:39,0.4,11,0.4,15,1.6,9
2015/12/17 5:40,0.4,10,0.4,15,2.7,8
2015/12/17 5:41,0.4,10,0.4,15,1,9
2015/12/17 5:42,0.5,10,0.5,15,0.9,16
2015/12/17 5:43,0.5,10,0.5,15,0.6,1
2015/12/17 5:44,0.6,10,0.6,15,1.3,3
2015/12/17 5:45,0.7,10,0.7,9,1.9,3
2015/12/17 5:46,0.7,4,0.7,9,1.3,3
2015/12/17 5:47,0.8,3,0.8,5,1.4,3
2015/12/17 5:48,0.8,2,0.8,5,1.3,9
2015/12/17 5:49,0.7,1,0.7,5,1,14
2015/12/17 5:50,0.6,1,0.7,5,0.9,16
2015/12/17 5:51,0.7,1,0.7,5,1.4,16
2015/12/17 5:52,0.8,1,0.8,5,2.4,16
2015/12/17 5:53,0.8,1,0.8,5,1.8,16
2015/12/17 5:54,0.9,16,0.9,1,1.5,16
2015/12/17 5:55,0.8,16,0.8,1,1.8,16
2015/12/17 5:56,0.9,16,0.9,1,2.1,15
2015/12/17 5:57,1,15,1,15,2.1,16
2015/12/17 5:58,0.9,15,1,15,0.5,15
2015/12/17 5:59,0.9,15,0.9,15,1.4,10
2015/12/17 6:00,1,15,1,15,1.4,11
2015/12/17 6:01,1,14,1,15,1,11
2015/12/17 6:02,0.8,14,0.9,15,0.6,4
2015/12/17 6:03,0.8,14,0.8,15,0.8,1
2015/12/17 6:04,0.7,14,0.8,15,0.9,16
2015/12/17 6:05,0.7,14,0.7,15,0.9,15
2015/12/17 6:06,0.6,14,0.7,15,1.5,6
2015/12/17 6:07,0.6,14,0.6,15,1.9,3
2015/12/17 6:08,0.7,14,0.7,15,1.3,16
2015/12/17 6:09,0.7,15,0.7,15,1.9,15
2015/12/17 6:10,0.8,16,0.8,14,3,15
2015/12/17 6:11,1.1,16,1.1,16,3.5,16
2015/12/17 6:12,1.2,16,1.2,1,3,15
2015/12/17 6:13,1.4,16,1.4,16,2.6,16
2015/12/17 6:14,1.6,16,1.6,16,3.5,13
2015/12/17 6:15,1.7,16,1.7,16,3.5,12
2015/12/17 6:16,1.7,15,1.7,16,1.9,14
2015/12/17 6:17,1.8,15,1.8,15,2.5,13
2015/12/17 6:18,1.8,15,1.8,15,1.5,15
2015/12/17 6:19,1.8,14,1.8,15,1.6,15
2015/12/17 6:20,1.7,14,1.8,15,1.5,14
2015/12/17 6:21,1.4,14,1.6,15,1.4,13
2015/12/17 6:22,1.3,13,1.4,15,1.5,12
2015/12/17 6:23,1.3,13,1.3,15,1.4,15
2015/12/17 6:24,1.1,13,1.2,15,1.5,9
2015/12/17 6:25,1,13,1.1,15,1.8,15
2015/12/17 6:26,1,13,1,15,3,12
2015/12/17 6:27,1,13,1,15,2.7,13
2015/12/17 6:28,1.2,13,1.2,15,2.6,13
2015/12/17 6:29,1.2,13,1.2,14,2.4,14
2015/12/17 6:30,1.3,13,1.3,14,3,13
2015/12/17 6:31,1.3,13,1.3,14,2.6,13
2015/12/17 6:32,1.4,13,1.4,13,3.2,12
2015/12/17 6:33,1.5,13,1.5,13,2.5,15
2015/12/17 6:34,1.5,13,1.5,13,2.2,10
2015/12/17 6:35,1.6,13,1.6,13,2,10
2015/12/17 6:36,1.6,13,1.6,13,3.1,12
2015/12/17 6:37,1.5,13,1.6,13,1.6,14
2015/12/17 6:38,1.4,13,1.5,13,1.5,12
2015/12/17 6:39,1.2,13,1.3,13,0.4,7
2015/12/17 6:40,1.1,13,1.2,13,1.1,4
2015/12/17 6:41,1.1,14,1.1,13,1,4
2015/12/17 6:42,1,14,1.1,13,1.6,12
2015/12/17 6:43,0.9,13,1,13,2,15
2015/12/17 6:44,0.9,13,0.9,13,1.4,15
2015/12/17 6:45,0.9,13,0.9,13,2.6,12
2015/12/17 6:46,0.7,14,0.8,13,1.3,12
2015/12/17 6:47,0.7,13,0.7,13,0.8,13
2015/12/17 6:48,0.8,13,0.8,13,3.5,10
2015/12/17 6:49,1,13,1,13,4.5,10
2015/12/17 6:50,1.2,12,1.2,12,4.2,11
2015/12/17 6:51,1.3,12,1.3,12,2.5,13
2015/12/17 6:52,1.3,12,1.3,12,1.9,16
2015/12/17 6:53,1.2,12,1.3,12,0.9,15
2015/12/17 6:54,1.2,12,1.2,12,0.4,12
2015/12/17 6:55,1.3,12,1.3,12,3.8,11
2015/12/17 6:56,1.4,11,1.4,12,2.6,10
2015/12/17 6:57,1.5,11,1.5,11,1.9,12
2015/12/17 6:58,1.6,11,1.6,11,3.9,9
2015/12/17 6:59,1.6,12,1.6,11,4.7,11
2015/12/17 7:00,1.5,12,1.6,11,4.7,9
2015/12/17 7:01,1.4,11,1.5,11,2,10
2015/12/17 7:02,1.6,11,1.6,11,4.2,1
2015/12/17 7:03,1.7,11,1.7,11,3.6,1
2015/12/17 7:04,1.8,11,1.8,11,2,9
2015/12/17 7:05,1.6,12,1.8,11,2.2,10
2015/12/17 7:06,1.6,12,1.6,11,2.2,14
2015/12/17 7:07,1.6,12,1.6,11,2.5,12
2015/12/17 7:08,1.5,13,1.6,11,2,10
2015/12/17 7:09,1.4,12,1.5,11,2.7,11
2015/12/17 7:10,1.3,12,1.4,11,2.6,10
2015/12/17 7:11,1.4,12,1.4,11,3.6,12
2015/12/17 7:12,1.5,12,1.5,11,4.3,11
2015/12/17 7:13,1.5,11,1.5,11,3.9,9
2015/12/17 7:14,1.7,12,1.7,12,3.7,16
2015/12/17 7:15,1.8,12,1.8,12,3.2,15
2015/12/17 7:16,1.8,12,1.9,12,2.6,14
2015/12/17 7:17,1.8,12,1.8,12,1.6,3
2015/12/17 7:18,1.8,13,1.8,12,2.9,15
2015/12/17 7:19,1.8,13,1.8,12,3.3,15
2015/12/17 7:20,1.9,14,1.9,12,3.2,15
2015/12/17 7:21,1.8,14,1.9,12,1.8,16
2015/12/17 7:22,1.6,15,1.7,12,1,15
2015/12/17 7:23,1.4,15,1.5,12,0.8,14
2015/12/17 7:24,1.2,15,1.4,12,1.1,1
2015/12/17 7:25,1,15,1.2,12,1.9,16
2015/12/17 7:26,1.1,15,1.1,14,3.5,16
2015/12/17 7:27,1.2,15,1.2,14,3.6,16
2015/12/17 7:28,1.2,15,1.2,14,2.2,14
2015/12/17 7:29,1.1,15,1.2,14,1.4,13
2015/12/17 7:30,1,15,1.1,14,2.4,16
2015/12/17 7:31,1.1,15,1.1,15,2.5,14
2015/12/17 7:32,1.2,15,1.2,15,3,14
2015/12/17 7:33,1.4,15,1.4,15,2.1,13
2015/12/17 7:34,1.4,14,1.4,15,1.6,13
2015/12/17 7:35,1.5,14,1.5,14,2.4,13
2015/12/17 7:36,1.5,14,1.5,14,2.9,14
2015/12/17 7:37,1.5,13,1.5,14,3.3,12
2015/12/17 7:38,1.6,13,1.6,13,3.1,11
2015/12/17 7:39,1.8,13,1.8,13,3.7,12
2015/12/17 7:40,1.8,13,1.8,13,3.2,10
2015/12/17 7:41,1.7,12,1.8,13,2.1,13
2015/12/17 7:42,1.7,12,1.7,13,3.3,11
2015/12/17 7:43,1.7,12,1.7,13,3.3,11
2015/12/17 7:44,1.8,12,1.8,13,2.5,12
2015/12/17 7:45,1.8,12,1.8,13,2.9,13
2015/12/17 7:46,1.8,12,1.8,13,2.9,12
2015/12/17 7:47,1.7,12,1.8,13,2.6,15
2015/12/17 7:48,1.5,12,1.7,13,1.4,14
2015/12/17 7:49,1.4,13,1.5,13,1.5,12
2015/12/17 7:50,1.4,13,1.4,13,2.2,12
2015/12/17 7:51,1.5,13,1.5,12,2.2,11
2015/12/17 7:52,1.4,13,1.5,12,1.1,14
2015/12/17 7:53,1.3,13,1.4,12,1.5,14
2015/12/17 7:54,1.3,13,1.3,12,1.9,13
2015/12/17 7:55,1.2,13,1.3,12,1.3,14
2015/12/17 7:56,1,14,1.1,12,1,13
2015/12/17 7:57,0.9,14,1,12,0.9,13
2015/12/17 7:58,1,14,1,12,2.7,16
2015/12/17 7:59,1.1,14,1.1,13,3.2,16
2015/12/17 8:00,1.1,15,1.1,13,2.5,15
2015/12/17 8:01,1.1,15,1.1,13,2.7,15
2015/12/17 8:02,1.1,15,1.1,13,3.1,15
2015/12/17 8:03,1.2,15,1.2,13,3.7,14
2015/12/17 8:04,1.2,15,1.2,13,2.1,15
2015/12/17 8:05,1.2,16,1.2,15,0.6,16
2015/12/17 8:06,1.2,16,1.2,15,1.3,16
2015/12/17 8:07,1.4,16,1.4,16,6.1,13
2015/12/17 8:08,1.4,16,1.5,16,3.5,14
2015/12/17 8:09,1.4,16,1.4,16,2.1,5
2015/12/17 8:10,1.4,16,1.4,16,5,1
2015/12/17 8:11,1.4,16,1.4,16,2.9,16
2015/12/17 8:12,1.4,16,1.4,16,1.5,1
2015/12/17 8:13,1.3,16,1.4,16,2.4,12
2015/12/17 8:14,1.4,15,1.4,16,2,13
2015/12/17 8:15,1.4,15,1.5,16,1.5,14
2015/12/17 8:16,1.5,14,1.5,16,2,13
2015/12/17 8:17,1.3,14,1.5,16,1.1,12
2015/12/17 8:18,1.3,14,1.3,15,3.2,11
2015/12/17 8:19,1.4,14,1.4,15,2.6,9
2015/12/17 8:20,1.4,13,1.4,15,3.9,10
2015/12/17 8:21,1.4,13,1.4,15,4.4,10
2015/12/17 8:22,1.6,12,1.6,12,5.7,10
2015/12/17 8:23,1.8,12,1.8,12,5.5,9
2015/12/17 8:24,1.8,11,1.8,12,3.8,10
2015/12/17 8:25,1.9,11,1.9,11,3.7,10
2015/12/17 8:26,1.9,11,1.9,11,3.1,11
2015/12/17 8:27,1.9,10,1.9,11,2.1,9
2015/12/17 8:28,1.8,10,1.9,11,1.4,11
2015/12/17 8:29,1.8,11,1.8,11,2.5,13
2015/12/17 8:30,1.7,11,1.8,11,1,13
2015/12/17 8:31,1.5,11,1.7,11,1,8
2015/12/17 8:32,1.4,11,1.5,11,3.8,12
2015/12/17 8:33,1.2,11,1.4,11,3.5,10
2015/12/17 8:34,1.1,11,1.2,11,2.1,11
2015/12/17 8:35,1.1,11,1.1,11,3.3,12
2015/12/17 8:36,1.1,11,1.1,11,3.3,13
2015/12/17 8:37,1,11,1.1,10,1.3,16
2015/12/17 8:38,1,11,1,10,2,12
2015/12/17 8:39,1.1,10,1.1,11,2.5,13
2015/12/17 8:40,1.1,10,1.1,11,2.2,8
2015/12/17 8:41,1.2,10,1.2,11,3.5,11
2015/12/17 8:42,1.3,11,1.3,11,4.5,10
2015/12/17 8:43,1.4,11,1.4,10,4.7,11
2015/12/17 8:44,1.4,11,1.4,10,2.7,10
2015/12/17 8:45,1.4,10,1.5,10,2.5,8
2015/12/17 8:46,1.5,10,1.5,10,3.1,12
2015/12/17 8:47,1.6,11,1.6,11,3,13
2015/12/17 8:48,1.6,11,1.6,11,2.1,10
2015/12/17 8:49,1.6,11,1.7,11,4.1,10
2015/12/17 8:50,1.7,11,1.7,11,3.3,11
2015/12/17 8:51,1.7,11,1.8,11,4.9,9
2015/12/17 8:52,1.7,10,1.7,11,3.9,9
2015/12/17 8:53,1.6,10,1.7,11,4.3,10
2015/12/17 8:54,1.7,10,1.7,11,2.5,9
2015/12/17 8:55,1.7,10,1.7,11,3.3,8
2015/12/17 8:56,1.7,10,1.7,11,3.2,8
2015/12/17 8:57,1.6,10,1.7,11,2.1,11
2015/12/17 8:58,1.7,10,1.7,11,3.8,10
2015/12/17 8:59,1.8,10,1.8,11,5,10
2015/12/17 9:00,2,10,2,10,5.5,9
2015/12/17 9:01,2.1,10,2.1,10,4.9,9
2015/12/17 9:02,2.1,10,2.1,10,4.5,9
2015/12/17 9:03,2.1,10,2.1,10,3.8,10
2015/12/17 9:04,2.3,10,2.3,10,4.5,9
2015/12/17 9:05,2.3,10,2.3,10,4.9,9
2015/12/17 9:06,2.4,10,2.4,10,4.7,11
2015/12/17 9:07,2.4,10,2.4,10,3.7,9
2015/12/17 9:08,2.4,10,2.5,10,2.7,2
2015/12/17 9:09,2.3,10,2.4,10,4.3,9
2015/12/17 9:10,2.2,10,2.3,10,4.7,12
2015/12/17 9:11,2.2,10,2.2,10,4.7,9
2015/12/17 9:12,2.2,10,2.2,10,5,9
2015/12/17 9:13,2.1,10,2.2,10,3.6,9
2015/12/17 9:14,2.1,10,2.2,10,3.6,10
2015/12/17 9:15,2,10,2.1,10,1.8,8
2015/12/17 9:16,1.9,9,2,10,3.1,9
2015/12/17 9:17,1.9,10,1.9,10,4.1,13
2015/12/17 9:18,2,10,2,10,4.2,15
2015/12/17 9:19,2.1,11,2.1,10,4.8,15
2015/12/17 9:20,2.1,11,2.1,10,5.8,8
2015/12/17 9:21,2.1,10,2.1,10,5.2,7
2015/12/17 9:22,2,10,2,10,4.3,9
2015/12/17 9:23,1.9,11,2,10,3.2,9
2015/12/17 9:24,2,11,2,10,5,10
2015/12/17 9:25,2.2,11,2.2,11,5.6,9
2015/12/17 9:26,2.4,11,2.4,11,6.7,10
2015/12/17 9:27,2.7,11,2.7,11,7.5,10
2015/12/17 9:28,2.9,10,2.9,10,5.7,10
2015/12/17 9:29,2.9,10,2.9,10,8.9,9
2015/12/17 9:30,3.1,10,3.1,10,7,10
2015/12/17 9:31,3.2,10,3.2,10,7.5,9
2015/12/17 9:32,3.5,10,3.5,10,6.8,9
2015/12/17 9:33,3.6,10,3.6,10,4.4,11
2015/12/17 9:34,3.6,10,3.7,10,3.5,10
2015/12/17 9:35,3.6,10,3.6,10,4.1,10
2015/12/17 9:36,3.4,10,3.5,10,3.5,10
2015/12/17 9:37,3.1,10,3.4,10,3.3,10
2015/12/17 9:38,2.8,10,3.1,10,3.6,10
2015/12/17 9:39,2.6,10,2.8,10,3,8
2015/12/17 9:40,2.4,10,2.6,10,3.9,10
2015/12/17 9:41,2.3,10,2.4,10,5.6,9
2015/12/17 9:42,2.2,10,2.3,10,6.8,10
2015/12/17 9:43,2.2,10,2.2,10,5.4,10
2015/12/17 9:44,2.2,10,2.2,10,4.5,10
2015/12/17 9:45,2.1,10,2.2,10,4.1,9
2015/12/17 9:46,2.3,10,2.3,10,6,10
2015/12/17 9:47,2.5,10,2.5,10,5.5,10
2015/12/17 9:48,2.7,10,2.7,10,5.7,11
2015/12/17 9:49,3,10,3,10,6,11
2015/12/17 9:50,3.1,10,3.1,10,4.4,10
2015/12/17 9:51,3.3,10,3.3,10,6.3,10
2015/12/17 9:52,3.2,10,3.3,10,4.4,10
2015/12/17 9:53,3.2,10,3.2,10,4.8,11
2015/12/17 9:54,3.3,10,3.3,10,6.7,9
2015/12/17 9:55,3.4,10,3.4,10,6.4,9
2015/12/17 9:56,3.3,10,3.4,10,3.7,9
2015/12/17 9:57,3.4,10,3.4,10,6.4,8
2015/12/17 9:58,3.3,10,3.4,10,7.4,9
2015/12/17 9:59,3.3,9,3.3,10,7,9
2015/12/17 10:00,3.2,9,3.3,10,4.7,8
2015/12/17 10:01,3,9,3.2,10,6.3,10
2015/12/17 10:02,3,9,3,10,5.4,9
2015/12/17 10:03,3.1,9,3.1,10,5.5,9
2015/12/17 10:04,3.1,9,3.1,10,7.2,9
2015/12/17 10:05,3,9,3.1,10,5,9
2015/12/17 10:06,3.2,9,3.2,10,6.3,10
2015/12/17 10:07,3.2,10,3.2,10,6.8,8
2015/12/17 10:08,3.3,10,3.3,10,6.3,10
2015/12/17 10:09,3.3,10,3.4,10,7,10
2015/12/17 10:10,3.5,10,3.5,10,6.1,11
2015/12/17 10:11,3.7,10,3.7,10,6.7,9
2015/12/17 10:12,4,10,4,10,8.7,10
2015/12/17 10:13,4,10,4,10,9,10
2015/12/17 10:14,4,10,4,10,7,10
2015/12/17 10:15,4.1,10,4.1,10,4.8,9
2015/12/17 10:16,3.9,10,4.1,10,5.5,11
2015/12/17 10:17,3.9,10,4,10,6.9,9
2015/12/17 10:18,3.8,10,3.9,10,6.9,11
2015/12/17 10:19,3.7,10,3.8,10,6,9
2015/12/17 10:20,3.8,10,3.8,10,6.8,9
2015/12/17 10:21,3.6,10,3.8,10,5.4,10
2015/12/17 10:22,3.3,10,3.6,10,5.1,8
2015/12/17 10:23,3.1,10,3.2,10,3.8,11
2015/12/17 10:24,2.9,10,3.1,10,4.3,10
2015/12/17 10:25,3.1,10,3.1,10,8.2,10
2015/12/17 10:26,3.4,10,3.4,10,8.3,12
2015/12/17 10:27,3.6,10,3.6,10,7.9,11
2015/12/17 10:28,3.7,10,3.7,10,8.4,12
2015/12/17 10:29,4,10,4,10,8.2,11
2015/12/17 10:30,4.1,10,4.1,10,7.9,10
2015/12/17 10:31,4.3,10,4.3,10,9.2,10
2015/12/17 10:32,4.3,10,4.3,10,6.1,9
2015/12/17 10:33,4.6,11,4.6,11,7.2,10
2015/12/17 10:34,5,11,5,11,9.5,10
2015/12/17 10:35,4.9,10,5,11,8.1,9
2015/12/17 10:36,4.6,10,4.9,11,5.8,10
2015/12/17 10:37,4.1,10,4.5,11,3.3,11
2015/12/17 10:38,4.1,10,4.1,11,10.1,10
2015/12/17 10:39,3.9,10,4.1,11,8.5,9
2015/12/17 10:40,3.6,10,3.9,11,5.5,10
2015/12/17 10:41,3.5,10,3.6,11,6.1,10
2015/12/17 10:42,3.7,10,3.7,11,9.3,9